Regional Weather Roundup
Issued by NWS

Home | Current Version | Previous Version | Graphics & Text | Print | Product List | Glossary On
Versions: 1 2 3 4 5 6 7 8 9 10 11 12 13 14 15 16 17 18 19 20 21 22 23 24 25 26 27 28 29 30 31 32 33 34 35 36 37 38 39 40 41 42 43 44 45 46 47 48 49 50
344
ASUS45 KBOU 291107
RWRCO

WEATHER ROUNDUP FOR COLORADO
NATIONAL WEATHER SERVICE DENVER/BOULDER CO
500 AM MDT FRI JUL 29 2016

NOTE: "FAIR" INDICATES FEW OR NO CLOUDS BELOW 12000 FEET WITH NO
SIGNIFICANT WEATHER AND/OR OBSTRUCTIONS TO VISIBILITY.

COZ001>005-013-030-031-291200-
...NORTHWEST COLORADO...

CITY           SKY/WX    TMP DP  RH WIND       PRES   REMARKS
CRAIG          FAIR      48  36  63 CALM      30.22R
HAYDEN         FAIR      52  30  43 SE5       30.23R
MEEKER         FAIR      49  36  61 NE5       30.23R
MOUNT WERNER   NOT AVBL
STEAMBOAT SPGS FAIR      49  37  63 CALM      30.25R
WALDEN         FAIR      45  37  76 E6        30.36S
$$

COZ006>008-011-291200-
...WEST CENTRAL VALLEYS...

CITY           SKY/WX    TMP DP  RH WIND       PRES   REMARKS
GRAND JUNCTION FAIR      68  33  27 SE5       30.06R
MONTROSE       FAIR      60  37  42 SE7       30.17R
EAGLE          FAIR      52  32  46 CALM      30.26R
RIFLE          FAIR      59  35  40 SE3       30.15S
DELTA          NOT AVBL
NUCLA          NOT AVBL
$$

COZ017>023-064>068-291200-
...SOUTHWEST COLORADO...

CITY           SKY/WX    TMP DP  RH WIND       PRES   REMARKS
DURANGO        FAIR      54  39  57 E5        30.23R
CORTEZ         FAIR      59  40  49 E3        30.16R
PAGOSA SPRINGS FAIR      53  39  59 CALM      30.33S
TELLURIDE      FAIR      56  32  39 SE8       30.46R
WOLF CREEK PAS FAIR      50  34  53 SW13      30.68S
$$

COZ009-010-012-014-032>034-037-058>063-291200-
...CENTRAL COLORADO...

CITY           SKY/WX    TMP DP  RH WIND       PRES   REMARKS
ASPEN          FAIR      52  34  50 S8        30.31S
BUENA VISTA    FAIR      52  42  70 SW5       30.37F
COPPER MTN     FAIR      54  21  28 W6        30.63F
BERTHOUD PASS  FAIR      46  32  57 NW16G26   30.63F
COTTONWOOD PAS FAIR      54  45  71 NW3       30.49S
GUNNISON       FAIR      46  34  61 CALM      30.37R
KREMMLING      FAIR      43  34  70 CALM      30.32R
LEADVILLE      FAIR      44  37  76 CALM      30.48S
MONARCH PASS   FAIR      50  36  57 S15       30.73F
SALIDA         FAIR      57  49  72 SW5       30.41S
SUNLIGHT       NOT AVBL
WILKERSON PASS RAIN      46  46 100 W6        30.60S VSB 1/2
$$

COZ069>075-291200-
...SAN LUIS VALLEY/SANGRE DE CRISTO MOUNTAINS...

CITY           SKY/WX    TMP DP  RH WIND       PRES   REMARKS
ALAMOSA        FAIR      53  46  77 NE5       30.30F
LA VETA PASS   NOT AVBL
SAGUACHE       FAIR      55  34  44 NW8       30.34S
$$

COZ035-036-038>040-291200-
...NORTHERN COLORADO FRONT RANGE...

CITY           SKY/WX    TMP DP  RH WIND       PRES   REMARKS
DENVER INTL AP FAIR      60  57  89 E9        30.19F
DMNS CITY PARK   N/A     64  57  78 E5G10     30.18S
AURORA         PTCLDY    58  58  99 E7        30.21S
FRONT RANGE AP NOT AVBL
ERIE MUNI ARPT CLOUDY    67  58  72 E3        30.18S
BOULDER MUN AP NOT AVBL
CENTENNIAL     FAIR      61  57  87 CALM      30.20F
BROOMFIELD     CLOUDY    64  59  82 NE8       30.21S
LONGMONT       NOT AVBL
$$

COZ041-046-047-076>085-087-088-291200-
...PIKES PEAK/PALMER DIVIDE AND SOUTHERN FOOTHILLS...

CITY           SKY/WX    TMP DP  RH WIND       PRES   REMARKS
COLO. SPRINGS  FAIR      58  55  90 NE3       30.26S
A. F. ACADEMY  CLOUDY    57  57  99 N3        30.27R
SCHRIEVER AFB  NOT AVBL
ELLICOTT       NOT AVBL
FALCON         NOT AVBL
FORT CARSON    FAIR      61  56  83 S2        30.22F
LIMON          MOCLDY    57  56  96 N5        30.23R
MONUMENT HILL  FAIR      52  52 100 S8        30.30S
TRINIDAD       NOT AVBL
$$

COZ042>045-048>051-090-091-291200-
...NORTHEAST COLORADO...

CITY           SKY/WX    TMP DP  RH WIND       PRES   REMARKS
GREELEY ARPT   FAIR      63  57  82 NE3       30.18F
AKRON          LGT RAIN  60  56  86 S9        30.16F
BURLINGTON     FAIR      61  58  90 CALM      30.14F
WRAY           FAIR     N/A N/A N/A NW5       30.14S
STERLING       NOT AVBL
HOLYOKE        NOT AVBL
FORT MORGAN    NOT AVBL
$$

COZ086-089-092>099-291200-
...SOUTHEAST COLORADO...

CITY           SKY/WX    TMP DP  RH WIND       PRES   REMARKS
PUEBLO         FAIR      63  59  87 CALM      30.17S
LA JUNTA       FAIR      63  60  90 W6        30.14R
LAMAR          FAIR      63  61  93 VRB3      30.10S
SPRINGFIELD      N/A     63  58  83 W10       30.11R
$$




USA.gov is the U.S. government's official web portal to all federal, state and local government web resources and services.